Location: Chuathbaluk
(61.5726°N, 159.2454°W)
Time: 02:34:15
(UTC+00:00)

SR - Pass Details

Date: 04 December 2020
Orbit: 575 x 880 km, 66.7° (Epoch: 23 January)

Event Time Altitude Azimuth Distance (km) Brightness Sun altitude
Rises 03:54:00 0° 191° (S) 2,859 ? -15.7°
Reaches altitude 10° 03:56:24 10° 179° (S) 1,995 ? -15.9°
Maximum altitude 04:00:15 28° 120° (ESE) 1,221 ? -16.4°
Enters shadow 04:01:11 26° 100° (E) 1,297 ? -16.5°
